sat.trackr.live / text

‹ back to catalog

STARLINK-3116

NORAD 49146 · 2021-082S

PAYLOAD ACTIVE UNKNOWN

§ Identity

Operator
Country
US
Launch date
2021-09-14
Launch site
AFWTR
Launch vehicle
Mass (kg)
RCS (m²)

Purposes: comms

External: N2YO · Heavens-Above · Gunter

§ Orbital elements

Epoch: 2026-09-19T01:07:14.867040Z

Period
96.16 min
Inclination
69.9993°
Eccentricity
0.0002642
Mean motion
14.97522732 rev/d
Perigee alt
572.7 km
Apogee alt
576.4 km
Semi-major
6,952.7 km
B*
4.0218e-5
RAAN
148.3404°
Arg perigee
270.7195°
Mean anomaly
89.3661°
Rev number
27,655

§ Raw data

STARLINK-31161 49146U 21082S   26262.04669985  .00000378  00000+0  40218-4 0  99982 49146  69.9993 148.3404 0002642 270.7195  89.3661 14.97522732276550

JSON: /api/v1/satellites/49146 · /tle

For live sub-satellite position, see the globe view (requires WebGL).

§ Visibility from observer

Set your observer location to see the next 7 days of passes ≥ 10°. The values pass through the URL so the page stays shareable.

No JS? Fill the form by hand. The geolocation button needs JavaScript.